Regional Weather Roundup
Issued by NWS

Home | Current Version | Previous Version | Graphics & Text | Print | Product List | Glossary On
Versions: 1 2 3 4 5 6 7 8 9 10 11 12 13 14 15 16 17 18 19 20 21 22 23 24 25 26 27
000
ASUS45 KTFX 161910
RWRMT
MONTANA REGIONAL WEATHER ROUNDUP
NATIONAL WEATHER SERVICE GREAT FALLS MT
100 PM MDT MON OCT 16 2017

NOTE: "FAIR" INDICATES FEW OR NO CLOUDS BELOW 12000 FEET WITH NO
SIGNIFICANT WEATHER AND/OR OBSTRUCTIONS TO VISIBILITY.

MTZ001>007-043-162000-
WEST OF THE DIVIDE

CITY           SKY/WX    TMP DP  RH WIND       PRES   REMARKS
KALISPELL      SUNNY     56  35  45 S10       30.20F
MISSOULA       SUNNY     52  35  52 CALM      30.27F
BUTTE          SUNNY     60  16  18 N5        30.29F
MULLAN PASS    SUNNY     46  20  35 SW12G20   30.26F
$$

MTZ008-052>055-162000-
SOUTHWEST MONTANA

CITY           SKY/WX    TMP DP  RH WIND       PRES   REMARKS
BOZEMAN        SUNNY     62  20  19 CALM      30.26F
DILLON         SUNNY     60  20  21 SW13      30.30F
W YELLOWSTONE  SUNNY     50  14  23 MISG      30.40F
ENNIS          SUNNY     63  14  15 S9G15     30.34F
$$

MTZ009-010-012-014-046-048-049-054-162000-
EAST SLOPES AND CENTRAL MONTANA

CITY           SKY/WX    TMP DP  RH WIND       PRES   REMARKS
CUT BANK       SUNNY     61  25  25 SW33G40   30.05F
GREAT FALLS    SUNNY     64  19  17 SW28G36   30.11F
MALMSTROM AFB  SUNNY     63  20  19 SW32G41   30.10F
HELENA         SUNNY     62  26  25 E9        30.21F
$$

MTZ011-013-016-021-045-047-050-051-162000-
NORTH CENTRAL MONTANA

CITY           SKY/WX    TMP DP  RH WIND       PRES   REMARKS
HAVRE          SUNNY     68  29  23 W28G33    30.00F
LEWISTOWN      SUNNY     67  20  16 W18G25    30.11F
N BAR RANCH      N/A     64  18  16 W22G37    30.12F
$$

MTZ017>020-022>027-061-062-162000-
NORTHEAST MONTANA

CITY           SKY/WX    TMP DP  RH WIND       PRES   REMARKS
GLASGOW        SUNNY     65  31  28 NW20G25   29.98F
JORDAN           N/A     68  27  21 NW20G30   30.03F
SIDNEY         SUNNY     67  32  27 NW25G32   29.96F
WOLF POINT     SUNNY     67  31  26 W20G28    29.98S
MALTA          SUNNY     63  28  27 NW20      30.00F
$$

MTZ028>42-056>058-162000-
SOUTHCENTRAL AND SOUTHEAST MONTANA

CITY           SKY/WX    TMP DP  RH WIND       PRES   REMARKS
BAKER          SUNNY     66  30  26 NW17G31   30.05F
BILLINGS       MOSUNNY   72  22  15 W23G35    30.12F
LIVINGSTON     SUNNY     66  20  17 SW25G31   30.22F
MILES CITY     SUNNY     70  30  22 NW21G29   30.06F
ROUNDUP          N/A     70  23  17 W17       30.00S
$$

REGIONAL REPORTS...DAKOTAS

CITY           SKY/WX    TMP DP  RH WIND       PRES   REMARKS
WILLISTON      SUNNY     66  35  31 W21G29    29.93F
MINOT          SUNNY     67  34  29 W20G28    29.87F
DICKINSON      SUNNY     67  31  26 W14G25    29.98F
BEACH            N/A     64  28  25 W20       30.05F
CROSBY           N/A     64  32  29 NW17      29.91F
TIOGA            N/A     61  34  36 W17G23    29.94F
BISMARCK       SUNNY     72  34  24 W22G28    29.95F
GRAND FORKS    MOSUNNY   70  36  28 SW17G25   29.84F
FARGO          SUNNY     68  38  33 SW24G32   29.91F
BUFFALO SD       N/A     68  29  23 W18       30.00F
RAPID CITY     SUNNY     74  26  16 N14G20    30.09F
$$

REGIONAL REPORTS...WYOMING/IDAHO/WASHINGTON

CITY           SKY/WX    TMP DP  RH WIND       PRES   REMARKS
GILLETTE       SUNNY     69  20  15 VRB5      30.16F
SHERIDAN       SUNNY     74  26  16 NW7       30.14F
BUFFALO WY     SUNNY     68  16  13 VRB5      30.20S
CODY           SUNNY     67  13  12 W14G22    30.22F
YELLOWSTONE LA   N/A     47  24  40 VRB5      30.45F
IDAHO FALLS    SUNNY     51  26  37 CALM      30.42F
SALMON         SUNNY     49  27  42 CALM      30.37F
BOISE          SUNNY     54  26  34 VRB3      30.37F
SPOKANE        MOSUNNY   58  31  35 S8        30.22F
$$

REGIONAL REPORTS...ALBERTA

CITY           SKY/WX    TMP DP  RH WIND       PRES   REMARKS
EDMONTON       MOSUNNY   55  30  38 S5        29.78F
CALGARY        MOSUNNY   61  32  33 S12       29.84F
LETHBRIDGE     PTSUNNY   66  30  26 SW22G30   29.95F
$$

REGIONAL REPORTS...SASKATCHEWAN

CITY           SKY/WX    TMP DP  RH WIND       PRES   REMARKS
SWIFT CURRENT  SUNNY     59  30  33 SW8       29.92F
REGINA         MOSUNNY   61  32  33 W8        29.88F
SASKATOON      PTSUNNY   61  28  29 W14G21    29.84F
$$




USA.gov is the U.S. government's official web portal to all federal, state and local government web resources and services.